Franktown, CO

7:47 PM MST on February 09, 2016 (GMT -0700)
Monument Pass

Weather History for KMNH - October, 2012

Change the Weather History Date:

Friday, October 12, 2012

  Actual Average Record
Temperature  
Mean Temperature 48 °F -  
Max Temperature 64 °F - 71 °F (2003)
Min Temperature 33 °F - 28 °F (2004)
Degree Days  
Heating Degree Days 16    
Month to date heating degree days  
Cooling Degree Days 0    
Month to date cooling degree days  
Moisture  
Dew Point 35 °F    
Average Humidity 74    
Maximum Humidity 93    
Minimum Humidity 37    
Precipitation  
Precipitation 0.01 in - 0.18 in (2014)
Sea Level Pressure  
Sea Level Pressure 30.12 in    
Wind  
Wind Speed 14 mph (SSW)    
Max Wind Speed 26 mph    
Max Gust Speed 32 mph    
Visibility 10 miles    
Events Rain , Thunderstorm    
T = Trace of Precipitation, MM = Missing Value Source: NWS Daily Summary

Daily Weather History Graph

Daily Weather History Graph

Search for Another Location

Airport or City:

Trip Planner

Search our weather history database for the weather conditions in past years. The results will help you decide how hot, cold, wet, or windy it might be!

Date:

Astronomy

Oct. 12, 2012 Rise Set
Actual Time 7:05 AM MDT 6:23 PM MDT
Civil Twilight 6:38 AM MDT 6:50 PM MDT
Nautical Twilight 6:07 AM MDT 7:21 PM MDT
Astronomical Twilight 5:36 AM MDT 7:52 PM MDT
Moon 3:52 AM MDT (10/12) 4:33 PM MDT (10/12)
Length of Visible Light 12h 11m
Length of Day
11h 17m
Waning Crescent, 10% of the Moon is Illuminated
Oct 12
Waning Crescent
Oct 15
New
Oct 21
First Quarter
Oct 29
Full
Nov 6
Last Quarter

Hourly Weather History & Observations

Time (MDT) Temp. Windchill Dew Point Humidity Pressure Visibility Wind Dir Wind Speed Gust Speed Precip Events Conditions
12:11 AM 37.4 °F 28.9 °F 32.0 °F 81% 30.27 in 10.0 mi South 13.8 mph - N/A   Clear
12:31 AM 37.4 °F 30.3 °F 32.0 °F 81% 30.26 in 10.0 mi South 10.4 mph - N/A   Mostly Cloudy
12:51 AM 37.4 °F 29.3 °F 32.0 °F 81% 30.26 in 10.0 mi South 12.7 mph - N/A   Mostly Cloudy
1:11 AM 37.4 °F 29.3 °F 32.0 °F 81% 30.25 in 10.0 mi South 12.7 mph - N/A   Clear
1:31 AM 39.2 °F 34.2 °F 32.0 °F 75% 30.25 in 10.0 mi SSW 6.9 mph - N/A   Clear
1:51 AM 37.4 °F 28.2 °F 32.0 °F 81% 30.24 in 10.0 mi South 16.1 mph - N/A   Clear
2:11 AM 37.4 °F 29.8 °F 32.0 °F 81% 30.24 in 10.0 mi SSW 11.5 mph - N/A   Clear
2:31 AM 37.4 °F 28.9 °F 32.0 °F 81% 30.24 in 10.0 mi SSW 13.8 mph 18.4 mph N/A   Clear
2:51 AM 37.4 °F 28.2 °F 32.0 °F 81% 30.23 in 10.0 mi South 16.1 mph - N/A   Clear
3:11 AM 37.4 °F 27.2 °F 32.0 °F 81% 30.21 in 10.0 mi South 19.6 mph - N/A   Clear
3:31 AM 37.4 °F 27.8 °F 32.0 °F 81% 30.19 in 10.0 mi South 17.3 mph - N/A   Clear
3:51 AM 35.6 °F 24.5 °F 32.0 °F 87% 30.18 in 10.0 mi South 20.7 mph 24.2 mph N/A   Clear
4:11 AM 35.6 °F 26.2 °F 32.0 °F 87% 30.19 in 10.0 mi SSW 15.0 mph - N/A   Clear
4:28 AM 35.6 °F 26.6 °F 32.0 °F 87% 30.20 in 10.0 mi SSW 13.8 mph 20.7 mph N/A   Clear
4:51 AM 33.8 °F 24.3 °F 32.0 °F 93% 30.19 in 10.0 mi South 13.8 mph - N/A   Clear
4:57 AM 33.8 °F 23.9 °F 32.0 °F 93% 30.19 in 10.0 mi South 15.0 mph - N/A   Clear
5:27 AM 33.8 °F 23.5 °F 32.0 °F 93% 30.17 in 10.0 mi SSW 16.1 mph 21.9 mph N/A   Clear
5:50 AM 33.8 °F 23.9 °F 32.0 °F 93% 30.18 in 10.0 mi SSW 15.0 mph 20.7 mph N/A   Clear
6:11 AM 33.8 °F 23.9 °F 32.0 °F 93% 30.17 in 10.0 mi SSW 15.0 mph 18.4 mph N/A   Clear
6:30 AM 33.8 °F 23.9 °F 32.0 °F 93% 30.16 in 10.0 mi South 15.0 mph - N/A   Clear
6:51 AM 33.8 °F 23.9 °F 32.0 °F 93% 30.16 in 10.0 mi SSW 15.0 mph 18.4 mph N/A   Clear
7:11 AM 33.8 °F 22.5 °F 32.0 °F 93% 30.15 in 10.0 mi South 19.6 mph - N/A   Clear
7:31 AM 33.8 °F 21.9 °F 32.0 °F 93% 30.17 in 10.0 mi SSW 21.9 mph - N/A   Clear
8:00 AM 35.6 °F 27.1 °F 32.0 °F 87% 30.18 in 10.0 mi SW 12.7 mph 19.6 mph N/A   Clear
8:23 AM 41.0 °F 34.3 °F 32.0 °F 70% 30.17 in 10.0 mi SSW 11.5 mph 16.1 mph N/A   Clear
8:37 AM 42.8 °F 37.0 °F 32.0 °F 66% 30.16 in 10.0 mi SW 10.4 mph - N/A   Clear
8:55 AM 44.6 °F 38.4 °F 33.8 °F 66% 30.16 in 10.0 mi SW 12.7 mph - N/A   Clear
9:29 AM 53.6 °F - 35.6 °F 51% 30.15 in 10.0 mi SW 12.7 mph - N/A   Clear
10:07 AM 59.0 °F - 35.6 °F 42% 30.12 in 10.0 mi SSW 11.5 mph - N/A   Clear
10:27 AM 59.0 °F - 35.6 °F 42% 30.12 in 10.0 mi South 16.1 mph 20.7 mph N/A   Clear
10:50 AM 57.2 °F - 35.6 °F 44% 30.13 in 10.0 mi SSW 15.0 mph 20.7 mph N/A   Clear
11:31 AM 50.0 °F - 33.8 °F 54% 30.15 in 10.0 mi South 19.6 mph 25.3 mph N/A   Mostly Cloudy
11:51 AM 46.4 °F 37.7 °F 35.6 °F 66% 30.14 in 10.0 mi South 26.5 mph 32.2 mph N/A Rain Light Rain
12:18 PM 48.2 °F - 35.6 °F 62% 30.15 in 10.0 mi SSW 25.3 mph 31.1 mph N/A   Overcast
12:40 PM 46.4 °F 38.7 °F 33.8 °F 62% 30.15 in 10.0 mi SW 20.7 mph 27.6 mph N/A   Overcast
1:31 PM 50.0 °F - 44.6 °F 82% 30.07 in 10.0 mi WSW 6.9 mph - 0.01 in   Mostly Cloudy
1:50 PM 57.2 °F - 44.6 °F 63% 30.04 in 10.0 mi SSW 8.1 mph - 0.01 in   Scattered Clouds
1:56 PM 59.0 °F - 44.6 °F 59% 30.04 in 10.0 mi South 12.7 mph 16.1 mph N/A   Clear
2:26 PM 62.6 °F - 41.0 °F 45% 30.02 in 10.0 mi SSW 19.6 mph 25.3 mph N/A   Clear
2:46 PM 64.4 °F - 37.4 °F 37% 30.02 in 10.0 mi South 23.0 mph 31.1 mph N/A   Mostly Cloudy
3:31 PM 59.0 °F - 37.4 °F 45% 30.02 in 10.0 mi South 18.4 mph 21.9 mph N/A   Scattered Clouds
4:00 PM 55.4 °F - 39.2 °F 54% 30.01 in 10.0 mi South 21.9 mph 28.8 mph N/A   Scattered Clouds
5:13 PM 51.8 °F - 37.4 °F 58% 30.01 in 10.0 mi South 10.4 mph 21.9 mph N/A   Mostly Cloudy
5:34 PM 50.0 °F - 41.0 °F 71% 30.01 in 10.0 mi West 3.5 mph - N/A   Scattered Clouds
5:52 PM 51.8 °F - 41.0 °F 67% 29.99 in 10.0 mi South 3.5 mph - N/A   Clear
6:14 PM 50.0 °F - 41.0 °F 71% 30.00 in 10.0 mi South 6.9 mph - N/A   Clear
6:54 PM 44.6 °F 38.4 °F 41.0 °F 87% 30.00 in 10.0 mi SSE 12.7 mph - N/A   Clear
7:12 PM 44.6 °F 39.7 °F 41.0 °F 87% 29.99 in 10.0 mi South 9.2 mph - N/A   Clear
7:32 PM 44.6 °F 39.2 °F 41.0 °F 87% 30.00 in 10.0 mi South 10.4 mph - N/A   Clear
7:53 PM 44.6 °F 38.8 °F 39.2 °F 81% 30.01 in 10.0 mi SW 11.5 mph - N/A   Clear
8:13 PM 44.6 °F 38.8 °F 41.0 °F 87% 29.99 in 10.0 mi South 11.5 mph 16.1 mph N/A   Clear
9:11 PM 44.6 °F 38.1 °F 39.2 °F 81% 30.00 in 10.0 mi WSW 13.8 mph - N/A   Clear
9:33 PM 42.8 °F 35.8 °F 37.4 °F 81% 30.02 in 10.0 mi SW 13.8 mph - N/A   Clear
10:10 PM 41.0 °F 33.5 °F 37.4 °F 87% 30.00 in 10.0 mi WSW 13.8 mph - N/A   Clear
10:14 PM 42.8 °F 36.2 °F 37.4 °F 81% 30.01 in 10.0 mi WSW 12.7 mph - N/A   Clear
10:35 PM 44.6 °F 38.8 °F 35.6 °F 71% 30.02 in 10.0 mi WSW 11.5 mph - N/A Thunderstorm Clear
11:07 PM 44.6 °F 38.1 °F 33.8 °F 66% 30.00 in 10.0 mi WSW 13.8 mph 23.0 mph N/A   Clear